• In Hungary
  • List of Countries
  • For 7 days
  • Water Temperature
  • Satellite Maps
  • Weather Map
  • News
  • Weather Widgets
  • user-avatar
    Login

    Hourly Weather Krasnogvardejskoe

    Today, 24 September, Monday

    Time Temperature Precipitation Wind Pressure Humidity
    00:00 +14°C° 0 mm 2 mps 757 mmHg 86%
    01:00 +14°C° 0 mm 2 mps 757 mmHg 87%
    02:00 +14°C° 0 mm 2 mps 756 mmHg 87%
    03:00 +14°C° 0 mm 2 mps 756 mmHg 88%
    04:00 +14°C° 0 mm 2 mps 756 mmHg 88%
    05:00 +14°C° 0 mm 2 mps 756 mmHg 89%
    06:00 +14°C° 0 mm 3 mps 755 mmHg 83%
    07:00 +17°C° 0 mm 3 mps 755 mmHg 76%
    08:00 +19°C° 0 mm 4 mps 755 mmHg 69%
    09:00 +21°C° 0 mm 4 mps 754 mmHg 63%
    10:00 +23°C° 0 mm 4 mps 754 mmHg 56%
    11:00 +26°C° 0 mm 4 mps 754 mmHg 49%
    12:00 +26°C° 0 mm 4 mps 754 mmHg 48%
    13:00 +27°C° 0 mm 5 mps 753 mmHg 48%
    14:00 +28°C° 0 mm 5 mps 753 mmHg 48%
    15:00 +27°C° 0 mm 5 mps 752 mmHg 52%
    16:00 +26°C° 0 mm 5 mps 751 mmHg 57%
    17:00 +25°C° 0 mm 5 mps 751 mmHg 62%
    18:00 +23°C° 0 mm 5 mps 751 mmHg 67%
    19:00 +22°C° 0 mm 5 mps 750 mmHg 71%
    20:00 +21°C° 0 mm 5 mps 750 mmHg 76%
    21:00 +20°C° 0 mm 5 mps 751 mmHg 77%
    22:00 +19°C° 0 mm 5 mps 751 mmHg 77%
    23:00 +17°C° 0 mm 6 mps 752 mmHg 78%

    Tomorrow, 25 September, Tuesday

    Time Temperature Precipitation Wind Pressure Humidity
    00:00 +16°C° 0.1 mm 6 mps 752 mmHg 77%
    01:00 +15°C° 0.1 mm 6 mps 752 mmHg 76%
    02:00 +12°C° 0.1 mm 7 mps 753 mmHg 76%
    03:00 +13°C° 0.6 mm 6 mps 753 mmHg 77%
    04:00 +11°C° 0.6 mm 6 mps 754 mmHg 79%
    05:00 +12°C° 0.6 mm 5 mps 754 mmHg 81%
    06:00 +12°C° 0.5 mm 5 mps 754 mmHg 78%
    07:00 +12°C° 0.5 mm 5 mps 755 mmHg 76%
    08:00 +12°C° 0.5 mm 5 mps 756 mmHg 73%
    09:00 +12°C° 0.1 mm 5 mps 756 mmHg 68%
    10:00 +13°C° 0.1 mm 6 mps 757 mmHg 63%
    11:00 +14°C° 0.1 mm 6 mps 757 mmHg 58%
    12:00 +14°C° 0 mm 7 mps 757 mmHg 54%
    13:00 +15°C° 0 mm 7 mps 757 mmHg 50%
    14:00 +16°C° 0 mm 7 mps 757 mmHg 45%
    15:00 +15°C° 0 mm 7 mps 758 mmHg 47%
    16:00 +15°C° 0 mm 6 mps 758 mmHg 49%
    17:00 +14°C° 0 mm 6 mps 758 mmHg 51%
    18:00 +13°C° 0 mm 5 mps 759 mmHg 54%
    19:00 +12°C° 0 mm 4 mps 759 mmHg 57%
    20:00 +11°C° 0 mm 4 mps 760 mmHg 60%
    21:00 +11°C° 0 mm 4 mps 760 mmHg 62%
    22:00 +10°C° 0 mm 4 mps 761 mmHg 64%
    23:00 +10°C° 0 mm 4 mps 761 mmHg 66%

    Day after tomorrow, 26 September, Wednesday

    Time Temperature Precipitation Wind Pressure Humidity
    00:00 +8°C° 0 mm 4 mps 761 mmHg 70%
    01:00 +8°C° 0 mm 4 mps 761 mmHg 73%
    02:00 +8°C° 0 mm 3 mps 762 mmHg 77%
    03:00 +8°C° 0 mm 3 mps 762 mmHg 78%
    04:00 +8°C° 0 mm 3 mps 762 mmHg 79%
    05:00 +7°C° 0 mm 3 mps 762 mmHg 81%
    06:00 +8°C° 0 mm 3 mps 763 mmHg 75%
    07:00 +8°C° 0 mm 4 mps 763 mmHg 69%
    08:00 +10°C° 0 mm 4 mps 764 mmHg 63%
    09:00 +11°C° 0 mm 4 mps 764 mmHg 57%
    10:00 +13°C° 0 mm 5 mps 764 mmHg 51%
    11:00 +14°C° 0 mm 5 mps 764 mmHg 44%
    12:00 +14°C° 0 mm 5 mps 764 mmHg 42%
    13:00 +14°C° 0 mm 5 mps 764 mmHg 40%
    14:00 +15°C° 0 mm 5 mps 764 mmHg 37%
    15:00 +14°C° 0 mm 4 mps 764 mmHg 39%
    16:00 +14°C° 0 mm 4 mps 764 mmHg 40%
    17:00 +13°C° 0 mm 4 mps 764 mmHg 41%
    18:00 +12°C° 0 mm 3 mps 764 mmHg 43%
    19:00 +11°C° 0 mm 3 mps 765 mmHg 46%
    20:00 +10°C° 0 mm 3 mps 765 mmHg 48%
    21:00 +10°C° 0 mm 3 mps 765 mmHg 49%
    22:00 +10°C° 0 mm 3 mps 765 mmHg 50%
    23:00 +9°C° 0 mm 3 mps 765 mmHg 51%

    27 September, Thursday

    Time Temperature Precipitation Wind Pressure Humidity
    00:00 +9°C° 0 mm 3 mps 765 mmHg 53%
    01:00 +8°C° 0 mm 3 mps 765 mmHg 55%
    02:00 +8°C° 0 mm 3 mps 765 mmHg 57%
    03:00 +8°C° 0 mm 3 mps 765 mmHg 61%
    04:00 +7°C° 0 mm 3 mps 765 mmHg 64%
    05:00 +7°C° 0 mm 3 mps 765 mmHg 67%
    06:00 +8°C° 0 mm 3 mps 765 mmHg 63%
    07:00 +10°C° 0 mm 3 mps 765 mmHg 59%
    08:00 +11°C° 0 mm 3 mps 765 mmHg 54%
    09:00 +12°C° 0 mm 3 mps 765 mmHg 49%
    10:00 +14°C° 0 mm 2 mps 765 mmHg 43%
    11:00 +15°C° 0 mm 2 mps 765 mmHg 38%
    12:00 +16°C° 0 mm 2 mps 764 mmHg 36%
    13:00 +16°C° 0 mm 2 mps 764 mmHg 34%
    14:00 +17°C° 0 mm 3 mps 763 mmHg 32%
    15:00 +16°C° 0 mm 2 mps 763 mmHg 34%
    16:00 +15°C° 0 mm 2 mps 763 mmHg 36%
    17:00 +15°C° 0 mm 2 mps 762 mmHg 38%
    18:00 +13°C° 0 mm 2 mps 762 mmHg 41%
    19:00 +12°C° 0 mm 2 mps 762 mmHg 43%
    20:00 +11°C° 0 mm 1 mps 762 mmHg 46%
    21:00 +11°C° 0 mm 1 mps 762 mmHg 47%
    22:00 +11°C° 0 mm 1 mps 762 mmHg 48%
    23:00 +11°C° 0 mm 1 mps 762 mmHg 48%

    28 September, Friday

    Time Temperature Precipitation Wind Pressure Humidity
    00:00 +10°C° 0 mm 1 mps 761 mmHg 48%
    01:00 +10°C° 0 mm 1 mps 761 mmHg 47%
    02:00 +10°C° 0 mm 1 mps 761 mmHg 46%
    03:00 +10°C° 0 mm 1 mps 760 mmHg 45%
    04:00 +10°C° 0 mm 1 mps 760 mmHg 44%
    05:00 +10°C° 0 mm 1 mps 760 mmHg 43%
    06:00 +12°C° 0 mm 1 mps 760 mmHg 41%
    07:00 +14°C° 0 mm 1 mps 759 mmHg 38%
    08:00 +15°C° 0 mm 1 mps 759 mmHg 35%
    09:00 +18°C° 0 mm 1 mps 759 mmHg 35%
    10:00 +20°C° 0 mm 1 mps 759 mmHg 35%
    11:00 +21°C° 0 mm 1 mps 759 mmHg 35%
    12:00 +22°C° 0 mm 1 mps 758 mmHg 35%
    13:00 +21°C° 0 mm 2 mps 758 mmHg 36%
    14:00 +23°C° 0 mm 2 mps 757 mmHg 36%
    15:00 +21°C° 0 mm 2 mps 757 mmHg 40%
    16:00 +20°C° 0 mm 2 mps 757 mmHg 44%
    17:00 +19°C° 0 mm 2 mps 757 mmHg 48%
    18:00 +18°C° 0 mm 2 mps 756 mmHg 50%
    19:00 +17°C° 0 mm 2 mps 756 mmHg 52%
    20:00 +16°C° 0 mm 2 mps 756 mmHg 55%
    21:00 +16°C° 0 mm 1 mps 756 mmHg 55%
    22:00 +15°C° 0 mm 1 mps 756 mmHg 55%
    23:00 +15°C° 0 mm 1 mps 756 mmHg 55%

    29 September, Saturday

    Time Temperature Precipitation Wind Pressure Humidity
    00:00 +15°C° 0 mm 1 mps 755 mmHg 57%
    01:00 +14°C° 0 mm 1 mps 755 mmHg 58%
    02:00 +14°C° 0 mm 1 mps 755 mmHg 59%
    03:00 +14°C° 0 mm 1 mps 755 mmHg 61%
    04:00 +14°C° 0 mm 1 mps 755 mmHg 63%
    05:00 +14°C° 0 mm 1 mps 754 mmHg 65%
    06:00 +15°C° 0 mm 1 mps 754 mmHg 61%
    07:00 +16°C° 0 mm 1 mps 754 mmHg 57%
    08:00 +18°C° 0 mm 2 mps 754 mmHg 54%
    09:00 +19°C° 0 mm 2 mps 754 mmHg 50%
    10:00 +21°C° 0 mm 2 mps 754 mmHg 46%
    11:00 +23°C° 0 mm 2 mps 754 mmHg 42%
    12:00 +23°C° 0 mm 2 mps 754 mmHg 42%
    13:00 +24°C° 0 mm 2 mps 753 mmHg 41%
    14:00 +24°C° 0 mm 2 mps 753 mmHg 40%
    15:00 +23°C° 0 mm 2 mps 753 mmHg 45%
    16:00 +21°C° 0 mm 2 mps 753 mmHg 49%
    17:00 +20°C° 0 mm 3 mps 753 mmHg 53%
    18:00 +19°C° 0 mm 2 mps 753 mmHg 58%
    19:00 +18°C° 0 mm 2 mps 753 mmHg 63%
    20:00 +16°C° 0 mm 2 mps 753 mmHg 67%
    21:00 +16°C° 0 mm 1 mps 753 mmHg 67%
    22:00 +16°C° 0 mm 1 mps 754 mmHg 68%
    23:00 +16°C° 0 mm 1 mps 754 mmHg 68%
    Show more